Location: Praha
(50.0830°N, 14.4670°E)
Time: 12:22:23
(UTC+02:00)

ISS - Pass Details

Date: 21 September 2022
Orbit: 415 x 420 km, 51.6° (Epoch: 02 October)

Event Time Altitude Azimuth Distance (km) Brightness Sun altitude
Rises 21:58:56 0° 280° (W) 2,384 1.0 -27.1°
Reaches altitude 10° 22:01:03 10° 283° (WNW) 1,517 -0.2 -27.3°
Enters shadow 22:02:19 21° 287° (WNW) 1,015 -1.2 -27.5°
